Location: Unspecified
(0.0000°N, 1.0000°E)
Time: 07:39:25
(UTC+01:00)

Daily predictions for brighter satellites

Satellite Brightness Start Highest point End
(mag) Time Altitude Azimuth Time Altitude Azimuth Time Altitude Azimuth
FALCON 9 R/B 3.1 19:10:31 10° SW 19:15:05 86° NW 19:31:28 10° NE
ARIANE R/B 3.6 19:22:59 10° W 19:26:29 76° S 19:33:53 10° E
ATLAS 2AS CENTAUR R/B 3.9 19:24:02 10° NNE 19:28:28 17° ENE 19:32:41 10° ESE
Cosmos 332 Rocket 4.0 19:24:13 10° S 19:28:55 51° ESE 19:33:38 10° NNE
Hubble Space Telescope 1.2 19:25:56 10° WSW 19:29:59 56° NNW 19:34:01 10° NE
GPS 2-17 Rocket1 3.2 19:28:03 10° WSW 19:32:56 81° NNW 19:37:43 10° ENE
Cosmos 1570 Rocket 4.5 19:30:46 10° S 19:35:48 42° ESE 19:40:48 10° NNE
ALOS 2.2 19:34:26 10° SSE 19:39:05 77° ENE 19:43:43 10° N
YAOGAN 1 3.9 19:40:08 10° S 19:44:16 45° WSW 19:48:24 10° NNW
GPS 2-14 Rocket1 2.9 19:43:49 10° NW 19:47:28 46° NNE 19:50:44 12° E
CZ-4 R/B 4.3 19:45:06 10° SSW 19:48:18 23° WSW 19:51:33 10° NW
Cosmos 968 Rocket 4.1 19:45:10 10° NNE 19:49:38 31° ENE 19:54:05 10° SE
FREGAT/IRIS 3.5 19:50:30 10° SE 19:53:04 26° E 19:55:37 10° NNE
ARIANE 5 DEB (SYLDA) 4.1 19:34:38 10° W 19:53:20 56° N 19:56:40 16° ENE
SJ-6B 4.3 19:51:00 10° ESE 19:53:45 18° E 19:55:03 16° NE
CZ-3A R/B 2.1 19:53:56 10° WSW 19:56:54 75° NNW 20:05:54 16° ENE
Cosmos 2218 Rocket 3.9 19:51:31 10° N 19:57:38 85° E 20:03:49 10° S
Cosmos 1703 4.2 19:54:20 10° SSW 19:58:10 51° W 20:01:59 10° N
SL-8 Rocket 4.3 19:52:58 10° N 19:59:08 74° W 20:05:25 10° S
Mugunghwa Rocket 4.1 19:58:51 10° WSW 20:05:06 66° NNW 20:09:47 19° NE
Lacrosse 5 rocket 1.6 20:01:41 10° NNW 20:06:18 83° WSW 20:10:54 10° SSE
SPOT 3 Rocket 3.8 20:01:31 10° S 20:06:39 74° WSW 20:11:46 10° NNW
Cosmos 2263 4.2 20:03:59 10° N 20:09:33 55° ENE 20:15:04 10° SSE
ISS -3.8 20:07:43 10° SSW 20:10:56 59° SE 20:12:00 36° ENE
Cosmos 1455 4.0 20:13:20 16° ESE 20:13:20 16° ESE 20:14:36 10° SE
SL-08 R/B 4.5 20:07:17 10° N 20:13:23 87° W 20:19:31 10° S
Atlas 2A Centaur Rocket 2.8 20:12:06 10° W 20:14:49 28° SW 20:16:13 13° SSE
ARIANE 5 DEB (SYLDA) 3.1 20:10:50 10° WSW 20:15:38 43° S 20:16:36 28° SE
Cosmos 371 Rocket 4.5 20:11:50 10° SSW 20:16:22 42° WNW 20:20:53 10° N
CZ-3C R/B 1.3 20:10:03 10° WNW 20:18:35 89° NNE 20:19:45 34° ESE
USA 81 4.5 20:13:23 10° S 20:18:37 65° W 20:23:49 10° N
ARIANE 5 DEB (SYLDA) 3.7 20:17:00 10° WSW 20:19:53 34° S 20:22:04 21° ESE
CZ-4C R/B 1.7 20:16:46 10° SSW 20:21:40 89° WNW 20:24:44 23° NNE
Cosmos 2369 Rocket 2.6 20:16:55 10° NNW 20:22:33 68° WSW 20:28:13 10° S
NATO 3D Rocket 3.2 20:22:24 10° WSW 20:27:06 88° SSE 20:29:06 38° ENE
Cosmos 1151 Rocket 3.9 20:30:03 32° ESE 20:30:03 32° ESE 20:33:03 10° SSE
Delta 2 Rocket 4.1 20:26:58 10° WSW 20:32:43 76° NW 20:34:49 39° NE
FengYun 1-2 T 4.4 20:27:11 10° S 20:32:50 77° WSW 20:38:28 10° NNW
Cosmos 2082 Rocket 2.5 20:30:40 10° S 20:36:07 46° ESE 20:37:06 42° ENE
SL-27 R/B 2.8 20:33:56 10° SSW 20:37:13 58° WNW 20:37:43 50° NW
Meteor 1-27 4.2 20:31:27 10° N 20:37:13 78° E 20:43:03 10° S
Atlas Centaur 2 2.8 20:32:07 10° SW 20:39:14 53° SSE 20:41:09 39° E
Cosmos 1515 Rocket 3.4 20:42:02 68° E 20:42:02 68° E 20:46:14 10° S
Cosmos 2228 Rocket 3.0 20:41:51 41° N 20:43:25 80° E 20:47:59 10° S
ATLAS CENTAUR R/B 2.9 20:40:58 10° S 20:42:56 23° SSE 20:42:56 23° SSE
Cosmos 1339 Rocket 4.5 20:38:39 10° S 20:44:33 53° E 20:45:29 48° ENE
Lacrosse 5 3.2 20:40:38 10° SW 20:45:16 35° WNW 20:47:58 21° N
Cosmos 1943 Rocket 2.5 20:40:35 10° NNW 20:46:01 64° WSW 20:51:28 10° S
Cosmos 1821 Rocket 4.0 20:44:34 38° NNE 20:46:45 57° E 20:52:55 10° SSE
GPS 2-12 Rocket1 3.2 20:47:16 10° WNW 20:51:41 61° SSW 20:52:01 59° S
Ariane H10+ 2.8 20:49:47 10° WNW 20:51:09 23° WNW 20:51:09 23° WNW
Cosmos 1346 Rocket 4.0 20:56:15 26° NW 20:57:54 40° W 21:01:33 10° SSW
Sich 1 4.1 21:01:17 10° S 21:04:05 39° S 21:04:05 39° S
ARIANE 5 DEB (SYLDA) 4.3 21:06:02 10° W 21:11:32 41° NW 21:11:32 41° NW
Cosmos 1833 Rocket 2.9 21:06:56 10° SSW 21:12:28 64° WNW 21:12:54 62° NW
Cosmos 1727 Rocket 3.9 21:06:43 10° S 21:12:56 85° W 21:13:28 75° NNW
ATLAS 2AS CENTAUR R/B 3.5 21:12:34 10° NW 21:19:17 48° WSW 21:25:27 10° S
SWIFT 4.3 21:15:49 10° SW 21:17:52 26° SW 21:17:52 26° SW
Cosmos 841 Rocket 4.2 21:18:24 10° SSW 21:22:39 52° WSW 21:22:39 52° WSW
Envisat 3.8 21:19:33 10° S 21:24:26 47° WSW 21:24:30 47° W
Resurs 01 Rocket 4.2 21:26:19 10° S 21:26:53 13° S 21:26:53 13° S
H-2A R/B 4.1 21:55:23 10° SW 22:04:07 31° SSW 22:04:07 31° SSW
